Regional Weather Roundup
Issued by NWS Charleston, SC

Current Version | Previous Version | Graphics & Text | Print | Product List | Glossary On
Versions: 1 2 3 4 5 6 7 8 9 10 11 12 13 14 15 16 17 18 19 20 21 22 23 24 25 26 27 28 29 30 31 32 33 34 35 36 37 38 39 40 41 42 43 44 45 46 47 48 49 50
000
ASUS42 KCHS 211512
RWRCHS

REGIONAL WEATHER ROUNDUP
NATIONAL WEATHER SERVICE CHARLESTON SC
1000 AM EST TUE NOV 21 2017

NOTE: "FAIR" INDICATES FEW OR NO CLOUDS BELOW 12,000 FEET WITH NO
SIGNIFICANT WEATHER AND/OR OBSTRUCTIONS TO VISIBILITY.

NOT ALL STATIONS ARE QUALITY CONTROLLED. USE DATA WITH CAUTION...
ESPECIALLY DEWPOINT OBSERVATIONS.

SCZ027-030-031-034>040-042>050-211600-
...SOUTHEAST SOUTH CAROLINA...

CITY           SKY/WX    TMP DP  RH WIND       PRES   REMARKS
N CHARLESTON   PTSUNNY   60  52  74 NE6       30.18S
WATERFRONT PRK NOT AVBL
JOHNS ISLAND   FAIR      63  55  77 NE6       30.17S
PINOPOLIS        N/A     54  48  82 E6        30.12R
MONCKS CORNER  FAIR      54  48  82 E3        30.20S
SUMMERVILLE    FAIR      55  50  82 NE3       30.19F
BEAUFORT MCAS  CLOUDY    63  54  72 VRB5      30.15F
BEAUFORT ARPT  FAIR      61  54  77 NE7       30.15F
HILTON HEAD IS MOSUNNY   64  55  72 NE6       30.16S
WALTERBORO     PTSUNNY   55  50  82 NE5       30.19S
ALLENDALE      CLOUDY    57  50  77 SE5       30.16F

...SOUTHERN MIDLANDS AND PEE DEE...

CITY           SKY/WX    TMP DP  RH WIND       PRES   REMARKS
GEORGETOWN     PTSUNNY   59  54  82 NE3       30.21S
KINGSTREE      CLOUDY    52  43  71 CALM      30.22S
ORANGEBURG     CLOUDY    53  45  74 SE5       30.19S
BARNWELL         N/A     57  50  77 NE5       30.17F
AIKEN          CLOUDY    52  45  76 E5        30.20S
MANNING        CLOUDY    52  46  82 MISG      30.21S
COLUMBIA       CLOUDY    52  44  74 E6        30.19F
SUMTER         PTSUNNY   52  42  70 NE5       30.18F
FLORENCE       CLOUDY    53  43  68 E8        30.22S
MYRTLE BEACH   CLOUDY    57  47  69 NE6       30.23R
N MYRTLE BEACH MOSUNNY   54  45  71 NE12      30.21F

$$

GAZ063-065-086>088-099>101-113>116-118-119-134>141-150-211600-
...SOUTHEAST GEORGIA...

CITY           SKY/WX    TMP DP  RH WIND       PRES   REMARKS
SAVANNAH ARPT  CLOUDY    64  55  72 NE8       30.14S
HUNTER AAF     CLOUDY    65  57  74 NE6       30.10F
FORT STEWART   CLOUDY    64  55  71 NE5       30.10F
STATESBORO     CLOUDY    58  47  67 E3        30.15S
SYLVANIA       CLOUDY    57  51  80 E5        30.17S
CLAXTON        PTSUNNY   59  52  78 NE5       30.14F

...CSRA...CENTRAL AND FAR SOUTHEAST GEORGIA...

CITY           SKY/WX    TMP DP  RH WIND       PRES   REMARKS
THOMSON        MOSUNNY   54  46  74 SE5       30.20F
AUGUSTA-BUSH   CLOUDY    55  46  71 S3        30.17S
AUGUSTA-DANIEL CLOUDY    56  46  69 SE5       30.17F
SWAINSBORO     PTSUNNY   57  52  82 E7        30.14F
VIDALIA        CLOUDY    59  54  82 E6        30.13F
EASTMAN        CLOUDY    61  45  55 CALM      30.14F
HAZLEHURST     FAIR      60  49  66 CALM      30.12S
ALMA           PTSUNNY   62  54  74 NE3       30.12S
WAYCROSS       CLOUDY    65  56  72 E3        30.10F
JESUP          PTSUNNY   64  55  72 CALM      30.12S
BAXLEY         CLOUDY    57  55  94 E5        30.12S
BRUNSWICK      CLOUDY    63  59  88 NE5       30.11F
SAINT SIMONS   LGT RAIN  69  64  84 CALM      30.10F

$$

SCZ027-028-034-036>038-045-046-048>050-GAZ119-141-211600-
...LAKE AND SUPPLEMENTAL COASTAL OBSERVATIONS...

STATION/POSITION TIME  TEMP    WIND        PRES    WAVE   SWELL
                       AIR SEA DIR/SP/G            HT/PER HT/PER/DIR
                 (UTC) (F)     (DEG/KT/KT) (MB)    (FT/S) (FT/S/D)
WINYAH BAY       1345   55      50/  6     1023.0
LAKE MURRAY      1420   50     110/  3/  5 1021.7R
ACE BASIN NERRS  1345   56      10/  2     1021.0
FORT PULASKI     1436   62 61   60/  9/ 12 1020.8F
SAPELO ISLAND    1400   63      10/  4     1020.0

$$

ANZ835-935-AMZ111-154-330-350-352-354-370-450-454-472-211600-
...C-MAN AND BUOY OBSERVATIONS...

STATION/POSITION TIME  TEMP    WIND        PRES    WAVE   SWELL
                       AIR SEA DIR/SP/G            HT/PER HT/PER/DIR
                 (UTC) (F)     (DEG/KT/KT) (MB)    (FT/S) (FT/S/D)
BUOY 41004       1450   72 74  130/ 14/ 17 1021.2R   4/ 6   2/ 80/ 8
BUOY 41008       1450   71 68  120/ 12/ 14 1019.1F   4/ 6   3/120/ 6
FOLLY BEACH CMAN 1400   59      50/ 11/ 12 1022.4R
CAPERS NEARSHORE 1408   58 62   50/ 12/ 17 1021.4F
FRIPP NEARSHORE  1408   60 62   60/ 12/ 21 1020.4F


STATION/POSITION TIME  TEMP    WIND        PRES    WAVE   SWELL
                       AIR SEA DIR/SP/G            HT/PER HT/PER/DIR
                 (UTC) (F)     (DEG/KT/KT) (MB)    (FT/S) (FT/S/D)
5E ST. MARYS GA  1430      68                N/A     4/ 6
FRYING PAN BUOY  1450   71 71  140/ 12/ 16 1022.5R   2/ 8   2/ 70/ 8
BUOY 41025       1450   68     180/ 12/ 17 1024.8S   2/ 8   2/ 70/ 8
CAPE LOOKOUT NC  1400           20/  6/  7 1024.5F
BUOY 41002       1450   71 76  110/ 19/ 23 1022.6F   5/ 6   2/ 20/13
BUOY 41010       NOT AVBL
ST AUGUSTINE FL  1500   72 67  140/ 10/ 12 1018.4F


$$




USA.gov is the U.S. government's official web portal to all federal, state and local government web resources and services.